Weather History for Mammoth, CA

Change the Weather History Date:

Monday, July 15, 2013

  Actual Average Record
Temperature  
Mean Temperature 67 °F -  
Max Temperature 84 °F 76 °F 87 °F (2010)
Min Temperature 50 °F 63 °F 42 °F (2011)
Cooling Degree Days 2    
Growing Degree Days 17 (Base 50)    
Moisture  
Dew Point 34 °F    
Average Humidity 24    
Maximum Humidity 47    
Minimum Humidity 15    
Precipitation  
Precipitation 0.00 in - - ()
Sea Level Pressure  
Sea Level Pressure 30.13 in    
Wind  
Wind Speed 8 mph (WSW)    
Max Wind Speed 22 mph    
Max Gust Speed 38 mph    
Visibility 10 miles    
Events      
Averages and records for this station are not official NWS values.
T = Trace of Precipitation, MM = Missing Value Source: NWS Daily Summary

Daily Weather History Graph

Daily Weather History Graph

Search for Another Location

Airport:

Trip Planner

Search our weather history database for the weather conditions in past years. The results will help you decide how hot, cold, wet, or windy it might be!

Date:

Astronomy

Jul. 15, 2013 Rise Set
Actual Time 5:46 AM PDT 8:16 PM PDT
Civil Twilight 5:15 AM PDT 8:46 PM PDT
Nautical Twilight 4:38 AM PDT 9:24 PM PDT
Astronomical Twilight 3:56 AM PDT 10:05 PM PDT
Moon 1:01 PM PDT (7/15) No Moon Set
Length of Visible Light 15h 30m
Length of Day
14h 30m
Waxing Crescent, 46% of the Moon is Illuminated
Jul 15
Waxing Crescent
Jul 15
First Quarter
Jul 22
Full
Jul 29
Last Quarter
Aug 6
New

Hourly Weather History & Observations

Time (PDT) Temp. Dew Point Humidity Pressure Visibility Wind Dir Wind Speed Gust Speed Precip Events Conditions
4:55 AM 50.0 °F 28.4 °F 43% 30.22 in 10.0 mi Calm Calm - N/A   Clear
5:15 AM 50.0 °F 30.2 °F 47% 30.21 in 10.0 mi NNE 3.5 mph - N/A   Clear
7:55 AM 62.6 °F 32.0 °F 32% 30.22 in 10.0 mi Calm Calm - N/A   Clear
8:35 AM 66.2 °F 33.8 °F 30% 30.21 in 10.0 mi SE 3.5 mph - N/A   Scattered Clouds
8:55 AM 68.0 °F 33.8 °F 28% 30.21 in 10.0 mi SE 4.6 mph - N/A   Scattered Clouds
9:15 AM 71.6 °F 33.8 °F 25% 30.20 in 10.0 mi SE 5.8 mph - N/A   Clear
11:35 AM 80.6 °F 32.0 °F 17% 30.16 in 10.0 mi SE 12.7 mph 17.3 mph N/A   Scattered Clouds
12:35 PM 80.6 °F 32.0 °F 17% 30.15 in 10.0 mi ESE 5.8 mph 20.7 mph N/A   Mostly Cloudy
12:55 PM 80.6 °F 33.8 °F 18% 30.16 in 10.0 mi ESE 6.9 mph 20.7 mph N/A   Mostly Cloudy
1:15 PM 82.4 °F 33.8 °F 17% 30.14 in 10.0 mi East 12.7 mph 20.7 mph N/A   Mostly Cloudy
1:35 PM 78.8 °F 33.8 °F 20% 30.15 in 10.0 mi West 3.5 mph 19.6 mph N/A   Mostly Cloudy
1:55 PM 80.6 °F 35.6 °F 20% 30.14 in 10.0 mi West 13.8 mph 21.9 mph N/A   Scattered Clouds
2:15 PM 78.8 °F 35.6 °F 21% 30.13 in 10.0 mi WNW 15.0 mph 25.3 mph N/A   Mostly Cloudy
2:35 PM 82.4 °F 35.6 °F 19% 30.13 in 10.0 mi West 16.1 mph 28.8 mph N/A   Scattered Clouds
2:55 PM 82.4 °F 35.6 °F 19% 30.12 in 10.0 mi West 18.4 mph 26.5 mph N/A   Clear
3:15 PM 82.4 °F 33.8 °F 17% 30.12 in 10.0 mi WNW 19.6 mph 29.9 mph N/A   Mostly Cloudy
3:35 PM 80.6 °F 33.8 °F 18% 30.11 in 10.0 mi West 20.7 mph 36.8 mph N/A   Overcast
3:55 PM 80.6 °F 33.8 °F 18% 30.10 in 10.0 mi WNW 10.4 mph 31.1 mph N/A   Overcast
4:15 PM 78.8 °F 33.8 °F 20% 30.08 in 10.0 mi WNW 10.4 mph 38.0 mph N/A   Mostly Cloudy
4:55 PM 84.2 °F 32.0 °F 15% 30.09 in 10.0 mi WSW 15.0 mph 20.7 mph N/A   Clear
5:15 PM 82.4 °F 33.8 °F 17% 30.08 in 10.0 mi WSW 15.0 mph 26.5 mph N/A   Scattered Clouds
5:35 PM 82.4 °F 33.8 °F 17% 30.08 in 10.0 mi SW 11.5 mph 21.9 mph N/A   Clear
5:55 PM 80.6 °F 33.8 °F 18% 30.07 in 10.0 mi SSW 19.6 mph 28.8 mph N/A   Clear
6:15 PM 78.8 °F 35.6 °F 21% 30.07 in 10.0 mi SW 16.1 mph 26.5 mph N/A   Clear
6:35 PM 78.8 °F 35.6 °F 21% 30.07 in 10.0 mi SSW 17.3 mph 23.0 mph N/A   Clear
6:55 PM 77.0 °F 35.6 °F 22% 30.08 in 10.0 mi WNW 21.9 mph 34.5 mph N/A   Scattered Clouds
7:15 PM 75.2 °F 35.6 °F 24% 30.08 in 10.0 mi NW 17.3 mph 27.6 mph N/A   Scattered Clouds
7:35 PM 73.4 °F 33.8 °F 23% 30.08 in 10.0 mi West 9.2 mph 25.3 mph N/A   Clear
7:55 PM 73.4 °F 35.6 °F 25% 30.08 in 10.0 mi WNW 9.2 mph - N/A   Clear
10:35 PM 59.0 °F 32.0 °F 36% 30.13 in 10.0 mi Calm Calm - N/A   Clear
10:55 PM 59.0 °F 32.0 °F 36% 30.13 in 10.0 mi Calm Calm - N/A   Clear
11:35 PM 57.2 °F 32.0 °F 38% 30.14 in 10.0 mi Calm Calm - N/A   Clear